| time (UTC) | temp F | wind direction | speed MPH | gust MPH | rain 1hr in | rain 24hr in | rain mn in | humidity % | barometer mb |
| 20260509204557 | 62 | 306 | 9.0 | 16.0 | 0.00 | 0.00 | 0.00 | 31 | 943.2 |
| 20260509203050 | 63 | 302 | 9.0 | 17.0 | 0.00 | 0.00 | 0.00 | 32 | 943.1 |
| 20260509201556 | 62 | 299 | 8.0 | 15.0 | 0.00 | 0.00 | 0.00 | 32 | 943.2 |
| 20260509200057 | 61 | 307 | 5.0 | 15.0 | 0.00 | 0.00 | 0.00 | 33 | 943.2 |
| 20260509194545 | 61 | 309 | 7.0 | 16.0 | 0.00 | 0.00 | 0.00 | 33 | 943.3 |
| 20260509193044 | 61 | 292 | 8.0 | 17.0 | 0.00 | 0.00 | 0.00 | 34 | 943.4 |
| 20260509191541 | 60 | 301 | 9.0 | 16.0 | 0.00 | 0.00 | 0.00 | 35 | 943.4 |
| 20260509190043 | 59 | 301 | 5.0 | 14.0 | 0.00 | 0.00 | 0.00 | 36 | 943.5 |
| 20260509184536 | 58 | 281 | 8.0 | 16.0 | 0.00 | 0.00 | 0.00 | 37 | 943.4 |
| 20260509183035 | 58 | 313 | 5.0 | 16.0 | 0.00 | 0.00 | 0.00 | 39 | 943.5 |
| 20260509181538 | 58 | 290 | 8.0 | 15.0 | 0.00 | 0.00 | 0.00 | 40 | 943.6 |
| 20260509180030 | 57 | 294 | 3.0 | 12.0 | 0.00 | 0.00 | 0.00 | 42 | 943.5 |
| 20260509174528 | 56 | 282 | 3.0 | 9.0 | 0.00 | 0.00 | 0.00 | 42 | 943.7 |
| 20260509173025 | 55 | 278 | 7.0 | 12.0 | 0.00 | 0.00 | 0.00 | 43 | 943.7 |
| 20260509171534 | 54 | 294 | 3.0 | 9.0 | 0.00 | 0.00 | 0.00 | 44 | 943.6 |
| 20260509170028 | 54 | 306 | 3.0 | 10.0 | 0.00 | 0.00 | 0.00 | 46 | 943.5 |
| 20260509164518 | 52 | 275 | 3.0 | 10.0 | 0.00 | 0.00 | 0.00 | 50 | 943.7 |
| 20260509163015 | 51 | 318 | 3.0 | 11.0 | 0.00 | 0.00 | 0.00 | 51 | 943.7 |
| 20260509161513 | 51 | 276 | 5.0 | 9.0 | 0.00 | 0.00 | 0.00 | 52 | 943.8 |
| 20260509160011 | 50 | 278 | 3.0 | 9.0 | 0.00 | 0.00 | 0.00 | 53 | 943.7 |
| 20260509154512 | 49 | 277 | 3.0 | 9.0 | 0.00 | 0.00 | 0.00 | 56 | 943.8 |
| 20260509153005 | 47 | 289 | 3.0 | 9.0 | 0.00 | 0.00 | 0.00 | 58 | 943.8 |
| 20260509151504 | 47 | 293 | 3.0 | 7.0 | 0.00 | 0.00 | 0.00 | 59 | 943.8 |
| 20260509150007 | 46 | 292 | 1.0 | 4.0 | 0.00 | 0.00 | 0.00 | 62 | 943.8 |
| 20260509144600 | 45 | 292 | 2.0 | 4.0 | 0.00 | 0.00 | 0.00 | 66 | 943.7 |
| 20260509143059 | 43 | 300 | 0.0 | 4.0 | 0.00 | 0.00 | 0.00 | 71 | 943.7 |
| 20260509141557 | 42 | 305 | 0.0 | 2.0 | 0.00 | 0.00 | 0.00 | 71 | 943.6 |
| 20260509134625 | 40 | 314 | 0.0 | 3.0 | 0.00 | 0.00 | 0.00 | 79 | 943.4 |
| 20260509133056 | 38 | 312 | 1.0 | 3.0 | 0.00 | 0.00 | 0.00 | 82 | 943.2 |
| 20260509131553 | 37 | 347 | 0.0 | 2.0 | 0.00 | 0.00 | 0.00 | 84 | 943.1 |
| 20260509130048 | 35 | 350 | 0.0 | 2.0 | 0.00 | 0.00 | 0.00 | 86 | 942.9 |
| 20260509124546 | 34 | 351 | 0.0 | 1.0 | 0.00 | 0.00 | 0.00 | 86 | 942.7 |
| 20260509123044 | 33 | 355 | 0.0 | 1.0 | 0.00 | 0.00 | 0.00 | 86 | 942.5 |
| 20260509121546 | 34 | 355 | 0.0 | 1.0 | 0.00 | 0.00 | 0.00 | 85 | 942.3 |
| 20260509120043 | 34 | 360 | 0.0 | 1.0 | 0.00 | 0.00 | 0.00 | 87 | 942.0 |
| 20260509114543 | 33 | 5 | 0.0 | 1.0 | 0.00 | 0.00 | 0.00 | 88 | 941.7 |
| 20260509113034 | 33 | 5 | 0.0 | 1.0 | 0.00 | 0.00 | 0.00 | 88 | 941.4 |
| 20260509111533 | 33 | 5 | 0.0 | 0.0 | 0.00 | 0.00 | 0.00 | 88 | 941.2 |
| 20260509110030 | 33 | 5 | 0.0 | 1.0 | 0.00 | 0.00 | 0.00 | 88 | 941.0 |
| 20260509104528 | 34 | 5 | 0.0 | 1.0 | 0.00 | 0.00 | 0.00 | 89 | 940.8 |
| 20260509103025 | 34 | 22 | 0.0 | 0.0 | 0.00 | 0.00 | 0.00 | 89 | 940.7 |
| 20260509101534 | 34 | 22 | 0.0 | 0.0 | 0.00 | 0.00 | 0.00 | 89 | 940.6 |
| 20260509100025 | 34 | 22 | 0.0 | 1.0 | 0.00 | 0.00 | 0.00 | 88 | 940.5 |
| 20260509094522 | 34 | 22 | 0.0 | 0.0 | 0.00 | 0.00 | 0.00 | 88 | 940.3 |
| 20260509093020 | 35 | 22 | 0.0 | 0.0 | 0.00 | 0.00 | 0.00 | 86 | 940.1 |
| 20260509091519 | 35 | 22 | 0.0 | 0.0 | 0.00 | 0.00 | 0.00 | 85 | 939.8 |
| 20260509090010 | 37 | 22 | 0.0 | 1.0 | 0.00 | 0.00 | 0.00 | 84 | 939.5 |
| 20260509084511 | 38 | 22 | 0.0 | 1.0 | 0.00 | 0.00 | 0.00 | 83 | 939.3 |
| 20260509083001 | 39 | 22 | 0.0 | 2.0 | 0.00 | 0.00 | 0.00 | 82 | 939.0 |
| 20260509081558 | 40 | 22 | 0.0 | 3.0 | 0.00 | 0.00 | 0.00 | 82 | 938.9 |
| 20260509080056 | 40 | 12 | 0.0 | 3.0 | 0.00 | 0.00 | 0.00 | 82 | 938.7 |
| 20260509074604 | 41 | 28 | 1.0 | 3.0 | 0.00 | 0.00 | 0.00 | 84 | 938.7 |
| 20260509073055 | 40 | 56 | 0.0 | 1.0 | 0.00 | 0.00 | 0.00 | 87 | 938.5 |
| 20260509071550 | 41 | 58 | 0.0 | 1.0 | 0.00 | 0.00 | 0.00 | 87 | 938.4 |
| 20260509070048 | 42 | 58 | 0.0 | 0.0 | 0.00 | 0.00 | 0.00 | 85 | 938.2 |
| 20260509064556 | 43 | 58 | 0.0 | 0.0 | 0.00 | 0.00 | 0.00 | 82 | 938.0 |
| 20260509063042 | 45 | 58 | 0.0 | 1.0 | 0.00 | 0.00 | 0.00 | 80 | 937.7 |
| 20260509061535 | 45 | 58 | 0.0 | 1.0 | 0.00 | 0.00 | 0.00 | 79 | 937.5 |
| 20260509060029 | 47 | 60 | 0.0 | 0.0 | 0.00 | 0.00 | 0.00 | 78 | 937.4 |
| 20260509054528 | 48 | 60 | 0.0 | 0.0 | 0.00 | 0.00 | 0.00 | 79 | 937.3 |
| 20260509053028 | 49 | 60 | 0.0 | 1.0 | 0.00 | 0.00 | 0.00 | 79 | 937.1 |
| 20260509051534 | 49 | 60 | 0.0 | 0.0 | 0.00 | 0.00 | 0.00 | 79 | 936.9 |
| 20260509050026 | 50 | 60 | 0.0 | 1.0 | 0.00 | 0.00 | 0.00 | 78 | 936.9 |
| 20260509044526 | 50 | 60 | 0.0 | 1.0 | 0.00 | 0.00 | 0.00 | 77 | 936.7 |
| 20260509043025 | 50 | 76 | 0.0 | 1.0 | 0.00 | 0.00 | 0.00 | 77 | 936.3 |
| 20260509041525 | 50 | 76 | 0.0 | 1.0 | 0.00 | 0.00 | 0.00 | 77 | 935.8 |
| 20260509040024 | 51 | 76 | 0.0 | 1.0 | 0.00 | 0.00 | 0.00 | 76 | 935.5 |
| 20260509034538 | 51 | 76 | 0.0 | 2.0 | 0.00 | 0.00 | 0.00 | 75 | 935.4 |
| 20260509033023 | 51 | 78 | 0.0 | 3.0 | 0.00 | 0.00 | 0.00 | 74 | 935.4 |
| 20260509031523 | 51 | 60 | 1.0 | 3.0 | 0.00 | 0.00 | 0.00 | 72 | 935.2 |
| 20260509030023 | 52 | 63 | 0.0 | 3.0 | 0.00 | 0.00 | 0.00 | 71 | 935.1 |
| 20260509024520 | 54 | 79 | 0.0 | 5.0 | 0.00 | 0.00 | 0.00 | 63 | 934.7 |
| 20260509023020 | 56 | 29 | 2.0 | 14.0 | 0.00 | 0.00 | 0.00 | 54 | 934.9 |
| 20260509021522 | 58 | 36 | 1.0 | 11.0 | 0.00 | 0.00 | 0.00 | 51 | 934.8 |
| 20260509020019 | 60 | 59 | 6.0 | 13.0 | 0.00 | 0.00 | 0.00 | 45 | 934.5 |
| 20260509014517 | 62 | 320 | 4.0 | 10.0 | 0.00 | 0.00 | 0.00 | 42 | 934.5 |
| 20260509013017 | 62 | 319 | 5.0 | 14.0 | 0.00 | 0.00 | 0.00 | 41 | 934.3 |
| 20260509011517 | 64 | 311 | 5.0 | 13.0 | 0.00 | 0.00 | 0.00 | 39 | 934.2 |
| 20260509010020 | 64 | 302 | 6.0 | 16.0 | 0.00 | 0.00 | 0.00 | 39 | 934.1 |
| 20260509004517 | 64 | 298 | 4.0 | 10.0 | 0.00 | 0.00 | 0.00 | 39 | 933.9 |
| 20260509003016 | 64 | 302 | 3.0 | 10.0 | 0.00 | 0.00 | 0.00 | 40 | 933.6 |
| 20260509001514 | 65 | 295 | 8.0 | 17.0 | 0.00 | 0.00 | 0.00 | 40 | 933.8 |
| 20260509000014 | 65 | 302 | 8.0 | 19.0 | 0.00 | 0.00 | 0.00 | 41 | 934.1 |
| 20260508234513 | 65 | 302 | 10.0 | 21.0 | 0.00 | 0.00 | 0.00 | 41 | 934.4 |
| 20260508233012 | 68 | 273 | 10.0 | 20.0 | 0.00 | 0.00 | 0.00 | 33 | 933.3 |
| 20260508231511 | 69 | 292 | 11.0 | 22.0 | 0.00 | 0.00 | 0.00 | 30 | 933.1 |
| 20260508230009 | 70 | 277 | 11.0 | 20.0 | 0.00 | 0.00 | 0.00 | 29 | 933.0 |
| 20260508224511 | 69 | 267 | 10.0 | 19.0 | 0.00 | 0.00 | 0.00 | 31 | 933.3 |
| 20260508223006 | 70 | 262 | 11.0 | 18.0 | 0.00 | 0.00 | 0.00 | 30 | 933.6 |
| 20260508221508 | 70 | 276 | 8.0 | 16.0 | 0.00 | 0.00 | 0.00 | 30 | 933.7 |
| 20260508220001 | 68 | 300 | 9.0 | 20.0 | 0.00 | 0.00 | 0.00 | 31 | 933.9 |
| 20260508214501 | 67 | 271 | 10.0 | 18.0 | 0.00 | 0.00 | 0.00 | 32 | 934.2 |
| 20260508213106 | 69 | 320 | 10.0 | 18.0 | 0.00 | 0.00 | 0.00 | 28 | 934.3 |
| 20260508211559 | 70 | 315 | 11.0 | 25.0 | 0.00 | 0.00 | 0.00 | 25 | 934.2 |
| 20260508210058 | 71 | 306 | 15.0 | 29.0 | 0.00 | 0.00 | 0.00 | 23 | 934.1 |